owner,sensor,date,latitude,longitude,vertical_datum,sea_water_temperature,qcFlag 
TABS,ioos:station:wmo:42043:1,2002-09-01T00:00:00Z,28.9818,-94.9186,-2.0,30.22,11111222 
TABS,ioos:station:wmo:42043:1,2002-09-01T00:30:00Z,28.9818,-94.9186,-2.0,30.2,11111222 
TABS,ioos:station:wmo:42043:1,2002-09-01T01:00:00Z,28.9818,-94.9186,-2.0,30.16,11111222 
TABS,ioos:station:wmo:42043:1,2002-09-01T01:30:00Z,28.9818,-94.9186,-2.0,30.15,11111222 
TABS,ioos:station:wmo:42043:1,2002-09-01T02:00:00Z,28.9818,-94.9186,-2.0,30.14,11111222 
TABS,ioos:station:wmo:42043:1,2002-09-01T02:30:00Z,28.9818,-94.9186,-2.0,30.13,11111222 
TABS,ioos:station:wmo:42043:1,2002-09-01T03:00:00Z,28.9818,-94.9186,-2.0,30.14,11111222 
TABS,ioos:station:wmo:42043:1,2002-09-01T05:00:00Z,28.9818,-94.9186,-2.0,30.08,11111222 
TABS,ioos:station:wmo:42043:1,2002-09-01T05:30:00Z,28.9818,-94.9186,-2.0,30.08,11111222 
TABS,ioos:station:wmo:42043:1,2002-09-01T06:00:00Z,28.9818,-94.9186,-2.0,30.09,11111222 
TABS,ioos:station:wmo:42043:1,2002-09-01T07:00:00Z,28.9818,-94.9186,-2.0,30.13,11111222 
TABS,ioos:station:wmo:42043:1,2002-09-01T07:30:00Z,28.9818,-94.9186,-2.0,30.11,11111222 
TABS,ioos:station:wmo:42043:1,2002-09-01T08:30:00Z,28.9818,-94.9186,-2.0,30.12,11111222 
TABS,ioos:station:wmo:42043:1,2002-09-01T09:30:00Z,28.9818,-94.9186,-2.0,30.12,11111222 
TABS,ioos:station:wmo:42043:1,2002-09-01T11:00:00Z,28.9818,-94.9186,-2.0,30.09,11111222 
TABS,ioos:station:wmo:42043:1,2002-09-01T12:00:00Z,28.9818,-94.9186,-2.0,30.11,11111222 
TABS,ioos:station:wmo:42043:1,2002-09-01T13:00:00Z,28.9818,-94.9186,-2.0,30.08,11111222 
TABS,ioos:station:wmo:42043:1,2002-09-01T14:30:00Z,28.9818,-94.9186,-2.0,30.09,11111222 
TABS,ioos:station:wmo:42043:1,2002-09-01T15:30:00Z,28.9818,-94.9186,-2.0,30.12,11111222 
TABS,ioos:station:wmo:42043:1,2002-09-01T16:00:00Z,28.9818,-94.9186,-2.0,30.14,11111222 
TABS,ioos:station:wmo:42043:1,2002-09-01T16:30:00Z,28.9818,-94.9186,-2.0,30.19,11111222 
TABS,ioos:station:wmo:42043:1,2002-09-01T17:00:00Z,28.9818,-94.9186,-2.0,30.21,11111222 
TABS,ioos:station:wmo:42043:1,2002-09-01T17:30:00Z,28.9818,-94.9186,-2.0,30.24,11111222 
TABS,ioos:station:wmo:42043:1,2002-09-01T18:00:00Z,28.9818,-94.9186,-2.0,30.28,11111222 
TABS,ioos:station:wmo:42043:1,2002-09-01T18:30:00Z,28.9818,-94.9186,-2.0,30.31,11111222 
TABS,ioos:station:wmo:42043:1,2002-09-01T19:00:00Z,28.9818,-94.9186,-2.0,30.32,11111222 
TABS,ioos:station:wmo:42043:1,2002-09-01T20:00:00Z,28.9818,-94.9186,-2.0,30.34,11111222 
TABS,ioos:station:wmo:42043:1,2002-09-01T21:00:00Z,28.9818,-94.9186,-2.0,30.37,11111222 
TABS,ioos:station:wmo:42043:1,2002-09-01T22:30:00Z,28.9818,-94.9186,-2.0,30.38,11111222 
TABS,ioos:station:wmo:42043:1,2002-09-01T23:30:00Z,28.9818,-94.9186,-2.0,30.32,11111222 
TABS,ioos:station:wmo:42043:1,2002-09-02T00:30:00Z,28.9818,-94.9186,-2.0,30.27,11111222 
TABS,ioos:station:wmo:42043:1,2002-09-02T01:00:00Z,28.9818,-94.9186,-2.0,30.26,11111222 
TABS,ioos:station:wmo:42043:1,2002-09-02T02:00:00Z,28.9818,-94.9186,-2.0,30.21,11111222 
TABS,ioos:station:wmo:42043:1,2002-09-02T03:00:00Z,28.9818,-94.9186,-2.0,30.18,11111222 
TABS,ioos:station:wmo:42043:1,2002-09-02T04:00:00Z,28.9818,-94.9186,-2.0,30.12,11111222 
TABS,ioos:station:wmo:42043:1,2002-09-02T04:30:00Z,28.9818,-94.9186,-2.0,30.11,11111222 
TABS,ioos:station:wmo:42043:1,2002-09-02T05:30:00Z,28.9818,-94.9186,-2.0,30.11,11111222 
TABS,ioos:station:wmo:42043:1,2002-09-02T06:00:00Z,28.9818,-94.9186,-2.0,30.11,11111222 
TABS,ioos:station:wmo:42043:1,2002-09-02T06:30:00Z,28.9818,-94.9186,-2.0,30.1,11111222 
TABS,ioos:station:wmo:42043:1,2002-09-02T07:30:00Z,28.9818,-94.9186,-2.0,30.11,11111222 
TABS,ioos:station:wmo:42043:1,2002-09-02T08:00:00Z,28.9818,-94.9186,-2.0,30.13,11111222 
TABS,ioos:station:wmo:42043:1,2002-09-02T08:30:00Z,28.9818,-94.9186,-2.0,30.13,11111222 
TABS,ioos:station:wmo:42043:1,2002-09-02T09:00:00Z,28.9818,-94.9186,-2.0,30.12,11111222 
TABS,ioos:station:wmo:42043:1,2002-09-02T10:00:00Z,28.9818,-94.9186,-2.0,30.12,11111222 
TABS,ioos:station:wmo:42043:1,2002-09-02T11:00:00Z,28.9818,-94.9186,-2.0,30.08,11111222 
TABS,ioos:station:wmo:42043:1,2002-09-02T11:30:00Z,28.9818,-94.9186,-2.0,30.08,11111222 
TABS,ioos:station:wmo:42043:1,2002-09-02T12:30:00Z,28.9818,-94.9186,-2.0,30.07,11111222 
TABS,ioos:station:wmo:42043:1,2002-09-02T13:30:00Z,28.9818,-94.9186,-2.0,30.03,11111222 
TABS,ioos:station:wmo:42043:1,2002-09-02T15:00:00Z,28.9818,-94.9186,-2.0,30.03,11111222 
TABS,ioos:station:wmo:42043:1,2002-09-02T16:00:00Z,28.9818,-94.9186,-2.0,30.16,11111222 
TABS,ioos:station:wmo:42043:1,2002-09-02T16:30:00Z,28.9818,-94.9186,-2.0,30.22,11111222 
TABS,ioos:station:wmo:42043:1,2002-09-02T17:00:00Z,28.9818,-94.9186,-2.0,30.27,11111222 
TABS,ioos:station:wmo:42043:1,2002-09-02T18:30:00Z,28.9818,-94.9186,-2.0,30.2,11111222 
TABS,ioos:station:wmo:42043:1,2002-09-02T19:30:00Z,28.9818,-94.9186,-2.0,30.16,11111222 
TABS,ioos:station:wmo:42043:1,2002-09-02T20:30:00Z,28.9818,-94.9186,-2.0,30.27,11111222 
TABS,ioos:station:wmo:42043:1,2002-09-02T21:00:00Z,28.9818,-94.9186,-2.0,30.29,11111222 
TABS,ioos:station:wmo:42043:1,2002-09-02T22:00:00Z,28.9818,-94.9186,-2.0,30.29,11111222 
TABS,ioos:station:wmo:42043:1,2002-09-02T22:30:00Z,28.9818,-94.9186,-2.0,30.28,11111222 
TABS,ioos:station:wmo:42043:1,2002-09-02T23:00:00Z,28.9818,-94.9186,-2.0,30.29,11111222 
TABS,ioos:station:wmo:42043:1,2002-09-03T00:00:00Z,28.9818,-94.9186,-2.0,30.27,11111222 
TABS,ioos:station:wmo:42043:1,2002-09-03T00:30:00Z,28.9818,-94.9186,-2.0,30.27,11111222 
TABS,ioos:station:wmo:42043:1,2002-09-03T01:30:00Z,28.9818,-94.9186,-2.0,30.18,11111222 
TABS,ioos:station:wmo:42043:1,2002-09-03T02:30:00Z,28.9818,-94.9186,-2.0,30.13,11111222 
TABS,ioos:station:wmo:42043:1,2002-09-03T03:30:00Z,28.9818,-94.9186,-2.0,30.06,11111222 
TABS,ioos:station:wmo:42043:1,2002-09-03T04:00:00Z,28.9818,-94.9186,-2.0,30.05,11111222 
TABS,ioos:station:wmo:42043:1,2002-09-03T05:00:00Z,28.9818,-94.9186,-2.0,30.01,11111222 
TABS,ioos:station:wmo:42043:1,2002-09-03T06:00:00Z,28.9818,-94.9186,-2.0,30.0,11111222 
TABS,ioos:station:wmo:42043:1,2002-09-03T06:30:00Z,28.9818,-94.9186,-2.0,30.02,11111222 
TABS,ioos:station:wmo:42043:1,2002-09-03T07:00:00Z,28.9818,-94.9186,-2.0,30.03,11111222 
TABS,ioos:station:wmo:42043:1,2002-09-03T07:30:00Z,28.9818,-94.9186,-2.0,29.97,11111222 
TABS,ioos:station:wmo:42043:1,2002-09-03T08:30:00Z,28.9818,-94.9186,-2.0,29.89,11111222 
TABS,ioos:station:wmo:42043:1,2002-09-03T09:30:00Z,28.9818,-94.9186,-2.0,30.01,11111222 
TABS,ioos:station:wmo:42043:1,2002-09-03T10:00:00Z,28.9818,-94.9186,-2.0,30.0,11111222 
TABS,ioos:station:wmo:42043:1,2002-09-03T10:30:00Z,28.9818,-94.9186,-2.0,30.01,11111222 
TABS,ioos:station:wmo:42043:1,2002-09-03T11:00:00Z,28.9818,-94.9186,-2.0,30.0,11111222 
TABS,ioos:station:wmo:42043:1,2002-09-03T12:00:00Z,28.9818,-94.9186,-2.0,30.01,11111222 
TABS,ioos:station:wmo:42043:1,2002-09-03T13:00:00Z,28.9818,-94.9186,-2.0,29.97,11111222 
TABS,ioos:station:wmo:42043:1,2002-09-03T13:30:00Z,28.9818,-94.9186,-2.0,29.93,11111222 
TABS,ioos:station:wmo:42043:1,2002-09-03T14:30:00Z,28.9818,-94.9186,-2.0,29.88,11111222 
TABS,ioos:station:wmo:42043:1,2002-09-03T15:30:00Z,28.9818,-94.9186,-2.0,29.78,11111222 
TABS,ioos:station:wmo:42043:1,2002-09-03T16:30:00Z,28.9818,-94.9186,-2.0,29.92,11111222 
TABS,ioos:station:wmo:42043:1,2002-09-03T17:00:00Z,28.9818,-94.9186,-2.0,30.01,11111222 
TABS,ioos:station:wmo:42043:1,2002-09-03T18:00:00Z,28.9818,-94.9186,-2.0,29.91,11111222 
TABS,ioos:station:wmo:42043:1,2002-09-03T19:00:00Z,28.9818,-94.9186,-2.0,29.91,11111222 
TABS,ioos:station:wmo:42043:1,2002-09-03T20:00:00Z,28.9818,-94.9186,-2.0,29.82,11111222 
TABS,ioos:station:wmo:42043:1,2002-09-03T20:30:00Z,28.9818,-94.9186,-2.0,29.85,11111222 
TABS,ioos:station:wmo:42043:1,2002-09-03T21:30:00Z,28.9818,-94.9186,-2.0,29.84,11111222 
TABS,ioos:station:wmo:42043:1,2002-09-03T22:30:00Z,28.9818,-94.9186,-2.0,29.89,11111222 
TABS,ioos:station:wmo:42043:1,2002-09-03T23:30:00Z,28.9818,-94.9186,-2.0,29.82,11111222 
TABS,ioos:station:wmo:42043:1,2002-09-04T00:00:00Z,28.9818,-94.9186,-2.0,29.83,11111222 
TABS,ioos:station:wmo:42043:1,2002-09-04T01:00:00Z,28.9818,-94.9186,-2.0,29.81,11111222 
TABS,ioos:station:wmo:42043:1,2002-09-04T02:00:00Z,28.9818,-94.9186,-2.0,29.76,11111222 
TABS,ioos:station:wmo:42043:1,2002-09-04T03:30:00Z,28.9818,-94.9186,-2.0,29.69,11111222 
TABS,ioos:station:wmo:42043:1,2002-09-04T04:30:00Z,28.9818,-94.9186,-2.0,29.75,11111222 
TABS,ioos:station:wmo:42043:1,2002-09-04T05:00:00Z,28.9818,-94.9186,-2.0,29.69,11111222 
TABS,ioos:station:wmo:42043:1,2002-09-04T05:30:00Z,28.9818,-94.9186,-2.0,29.64,11111222 
TABS,ioos:station:wmo:42043:1,2002-09-04T06:00:00Z,28.9818,-94.9186,-2.0,29.64,11111222 
TABS,ioos:station:wmo:42043:1,2002-09-04T06:30:00Z,28.9818,-94.9186,-2.0,29.65,11111222 
TABS,ioos:station:wmo:42043:1,2002-09-04T07:30:00Z,28.9818,-94.9186,-2.0,29.69,11111222 
TABS,ioos:station:wmo:42043:1,2002-09-04T08:00:00Z,28.9818,-94.9186,-2.0,29.66,11111222 
TABS,ioos:station:wmo:42043:1,2002-09-04T08:30:00Z,28.9818,-94.9186,-2.0,29.62,11111222 
TABS,ioos:station:wmo:42043:1,2002-09-04T09:00:00Z,28.9818,-94.9186,-2.0,29.6,11111222 
TABS,ioos:station:wmo:42043:1,2002-09-04T09:30:00Z,28.9818,-94.9186,-2.0,29.59,11111222 
TABS,ioos:station:wmo:42043:1,2002-09-04T10:30:00Z,28.9818,-94.9186,-2.0,29.65,11111222 
TABS,ioos:station:wmo:42043:1,2002-09-04T11:00:00Z,28.9818,-94.9186,-2.0,29.55,11111222 
TABS,ioos:station:wmo:42043:1,2002-09-04T11:30:00Z,28.9818,-94.9186,-2.0,29.52,11111222 
TABS,ioos:station:wmo:42043:1,2002-09-04T12:00:00Z,28.9818,-94.9186,-2.0,29.5,11111222 
TABS,ioos:station:wmo:42043:1,2002-09-04T12:30:00Z,28.9818,-94.9186,-2.0,29.5,11111222 
TABS,ioos:station:wmo:42043:1,2002-09-04T13:30:00Z,28.9818,-94.9186,-2.0,29.58,11111222 
TABS,ioos:station:wmo:42043:1,2002-09-04T14:00:00Z,28.9818,-94.9186,-2.0,29.54,11111222 
TABS,ioos:station:wmo:42043:1,2002-09-04T14:30:00Z,28.9818,-94.9186,-2.0,29.52,11111222 
TABS,ioos:station:wmo:42043:1,2002-09-04T15:00:00Z,28.9818,-94.9186,-2.0,29.52,11111222 
TABS,ioos:station:wmo:42043:1,2002-09-04T15:30:00Z,28.9818,-94.9186,-2.0,29.55,11111222 
TABS,ioos:station:wmo:42043:1,2002-09-04T16:30:00Z,28.9818,-94.9186,-2.0,29.55,11111222 
TABS,ioos:station:wmo:42043:1,2002-09-04T17:00:00Z,28.9818,-94.9186,-2.0,29.47,11111222 
TABS,ioos:station:wmo:42043:1,2002-09-04T17:30:00Z,28.9818,-94.9186,-2.0,29.48,11111222 
TABS,ioos:station:wmo:42043:1,2002-09-04T18:00:00Z,28.9818,-94.9186,-2.0,29.48,11111222 
TABS,ioos:station:wmo:42043:1,2002-09-04T18:30:00Z,28.9818,-94.9186,-2.0,29.48,11111222 
TABS,ioos:station:wmo:42043:1,2002-09-04T19:00:00Z,28.9818,-94.9186,-2.0,29.45,11111222 
TABS,ioos:station:wmo:42043:1,2002-09-04T19:30:00Z,28.9818,-94.9186,-2.0,29.49,11111222 
TABS,ioos:station:wmo:42043:1,2002-09-04T20:00:00Z,28.9818,-94.9186,-2.0,29.49,11111222 
TABS,ioos:station:wmo:42043:1,2002-09-04T20:30:00Z,28.9818,-94.9186,-2.0,29.5,11111222 
TABS,ioos:station:wmo:42043:1,2002-09-04T21:00:00Z,28.9818,-94.9186,-2.0,29.5,11111222 
TABS,ioos:station:wmo:42043:1,2002-09-04T21:30:00Z,28.9818,-94.9186,-2.0,29.49,11111222 
TABS,ioos:station:wmo:42043:1,2002-09-04T22:00:00Z,28.9818,-94.9186,-2.0,29.49,11111222 
TABS,ioos:station:wmo:42043:1,2002-09-04T22:30:00Z,28.9818,-94.9186,-2.0,29.49,11111222 
TABS,ioos:station:wmo:42043:1,2002-09-04T23:00:00Z,28.9818,-94.9186,-2.0,29.49,11111222 
TABS,ioos:station:wmo:42043:1,2002-09-04T23:30:00Z,28.9818,-94.9186,-2.0,29.49,11111222 
TABS,ioos:station:wmo:42043:1,2002-09-05T00:00:00Z,28.9818,-94.9186,-2.0,29.48,11111222 
TABS,ioos:station:wmo:42043:1,2002-09-05T00:30:00Z,28.9818,-94.9186,-2.0,29.46,11111222 
TABS,ioos:station:wmo:42043:1,2002-09-05T01:00:00Z,28.9818,-94.9186,-2.0,29.45,11111222 
TABS,ioos:station:wmo:42043:1,2002-09-05T01:30:00Z,28.9818,-94.9186,-2.0,29.45,11111222 
TABS,ioos:station:wmo:42043:1,2002-09-05T02:00:00Z,28.9818,-94.9186,-2.0,29.46,11111222 
TABS,ioos:station:wmo:42043:1,2002-09-05T02:30:00Z,28.9818,-94.9186,-2.0,29.47,11111222 
TABS,ioos:station:wmo:42043:1,2002-09-05T03:00:00Z,28.9818,-94.9186,-2.0,29.48,11111222 
TABS,ioos:station:wmo:42043:1,2002-09-05T03:30:00Z,28.9818,-94.9186,-2.0,29.45,11111222 
TABS,ioos:station:wmo:42043:1,2002-09-05T04:00:00Z,28.9818,-94.9186,-2.0,29.33,11111222 
TABS,ioos:station:wmo:42043:1,2002-09-05T04:30:00Z,28.9818,-94.9186,-2.0,29.32,11111222 
TABS,ioos:station:wmo:42043:1,2002-09-05T05:00:00Z,28.9818,-94.9186,-2.0,29.31,11111222 
TABS,ioos:station:wmo:42043:1,2002-09-05T05:30:00Z,28.9818,-94.9186,-2.0,29.32,11111222 
TABS,ioos:station:wmo:42043:1,2002-09-05T06:00:00Z,28.9818,-94.9186,-2.0,29.32,11111222 
TABS,ioos:station:wmo:42043:1,2002-09-05T06:30:00Z,28.9818,-94.9186,-2.0,29.32,11111222 
TABS,ioos:station:wmo:42043:1,2002-09-05T07:00:00Z,28.9818,-94.9186,-2.0,29.24,11111222 
TABS,ioos:station:wmo:42043:1,2002-09-05T07:30:00Z,28.9818,-94.9186,-2.0,29.2,11111222 
TABS,ioos:station:wmo:42043:1,2002-09-05T08:00:00Z,28.9818,-94.9186,-2.0,29.23,11111222 
TABS,ioos:station:wmo:42043:1,2002-09-05T08:30:00Z,28.9818,-94.9186,-2.0,29.24,11111222 
TABS,ioos:station:wmo:42043:1,2002-09-05T09:00:00Z,28.9818,-94.9186,-2.0,29.22,11111222 
TABS,ioos:station:wmo:42043:1,2002-09-05T09:30:00Z,28.9818,-94.9186,-2.0,29.25,11111222 
TABS,ioos:station:wmo:42043:1,2002-09-05T10:00:00Z,28.9818,-94.9186,-2.0,29.27,11111222 
TABS,ioos:station:wmo:42043:1,2002-09-05T10:30:00Z,28.9818,-94.9186,-2.0,29.2,11111222 
TABS,ioos:station:wmo:42043:1,2002-09-05T11:00:00Z,28.9818,-94.9186,-2.0,29.11,11111222 
TABS,ioos:station:wmo:42043:1,2002-09-05T11:30:00Z,28.9818,-94.9186,-2.0,29.05,11111222 
TABS,ioos:station:wmo:42043:1,2002-09-05T12:00:00Z,28.9818,-94.9186,-2.0,29.05,11111222 
TABS,ioos:station:wmo:42043:1,2002-09-05T12:30:00Z,28.9818,-94.9186,-2.0,29.08,11111222 
TABS,ioos:station:wmo:42043:1,2002-09-05T13:00:00Z,28.9818,-94.9186,-2.0,29.05,11111222 
TABS,ioos:station:wmo:42043:1,2002-09-05T13:30:00Z,28.9818,-94.9186,-2.0,29.04,11111222 
TABS,ioos:station:wmo:42043:1,2002-09-05T14:00:00Z,28.9818,-94.9186,-2.0,29.02,11111222 
TABS,ioos:station:wmo:42043:1,2002-09-05T14:30:00Z,28.9818,-94.9186,-2.0,29.02,11111222 
TABS,ioos:station:wmo:42043:1,2002-09-05T15:00:00Z,28.9818,-94.9186,-2.0,29.02,11111222 
TABS,ioos:station:wmo:42043:1,2002-09-05T15:30:00Z,28.9818,-94.9186,-2.0,29.03,11111222 
TABS,ioos:station:wmo:42043:1,2002-09-05T16:00:00Z,28.9818,-94.9186,-2.0,29.0,11111222 
TABS,ioos:station:wmo:42043:1,2002-09-05T16:30:00Z,28.9818,-94.9186,-2.0,29.0,11111222 
TABS,ioos:station:wmo:42043:1,2002-09-05T17:00:00Z,28.9818,-94.9186,-2.0,28.99,11111222 
TABS,ioos:station:wmo:42043:1,2002-09-05T17:30:00Z,28.9818,-94.9186,-2.0,28.99,11111222 
TABS,ioos:station:wmo:42043:1,2002-09-05T18:00:00Z,28.9818,-94.9186,-2.0,28.96,11111222 
TABS,ioos:station:wmo:42043:1,2002-09-05T18:30:00Z,28.9818,-94.9186,-2.0,28.97,11111222 
TABS,ioos:station:wmo:42043:1,2002-09-05T19:00:00Z,28.9818,-94.9186,-2.0,28.95,11111222 
TABS,ioos:station:wmo:42043:1,2002-09-05T19:30:00Z,28.9818,-94.9186,-2.0,28.95,11111222 
TABS,ioos:station:wmo:42043:1,2002-09-05T20:00:00Z,28.9818,-94.9186,-2.0,28.93,11111222 
TABS,ioos:station:wmo:42043:1,2002-09-05T20:30:00Z,28.9818,-94.9186,-2.0,28.95,11111222 
TABS,ioos:station:wmo:42043:1,2002-09-05T21:00:00Z,28.9818,-94.9186,-2.0,28.94,11111222 
TABS,ioos:station:wmo:42043:1,2002-09-05T21:30:00Z,28.9818,-94.9186,-2.0,28.96,11111222 
TABS,ioos:station:wmo:42043:1,2002-09-05T22:00:00Z,28.9818,-94.9186,-2.0,28.96,11111222 
TABS,ioos:station:wmo:42043:1,2002-09-05T22:30:00Z,28.9818,-94.9186,-2.0,28.93,11111222 
TABS,ioos:station:wmo:42043:1,2002-09-05T23:00:00Z,28.9818,-94.9186,-2.0,28.95,11111222 
TABS,ioos:station:wmo:42043:1,2002-09-05T23:30:00Z,28.9818,-94.9186,-2.0,28.97,11111222 
TABS,ioos:station:wmo:42043:1,2002-09-06T00:00:00Z,28.9818,-94.9186,-2.0,28.97,11111222 
TABS,ioos:station:wmo:42043:1,2002-09-06T00:30:00Z,28.9818,-94.9186,-2.0,28.98,11111222 
TABS,ioos:station:wmo:42043:1,2002-09-06T01:00:00Z,28.9818,-94.9186,-2.0,28.98,11111222 
TABS,ioos:station:wmo:42043:1,2002-09-06T01:30:00Z,28.9818,-94.9186,-2.0,28.97,11111222 
TABS,ioos:station:wmo:42043:1,2002-09-06T02:00:00Z,28.9818,-94.9186,-2.0,28.95,11111222 
TABS,ioos:station:wmo:42043:1,2002-09-06T02:30:00Z,28.9818,-94.9186,-2.0,28.92,11111222 
TABS,ioos:station:wmo:42043:1,2002-09-06T03:00:00Z,28.9818,-94.9186,-2.0,28.93,11111222 
TABS,ioos:station:wmo:42043:1,2002-09-06T13:30:00Z,28.9818,-94.9186,-2.0,28.68,11111222 
TABS,ioos:station:wmo:42043:1,2002-09-06T14:00:00Z,28.9818,-94.9186,-2.0,28.66,11111222 
TABS,ioos:station:wmo:42043:1,2002-09-06T14:30:00Z,28.9818,-94.9186,-2.0,28.59,11111222 
TABS,ioos:station:wmo:42043:1,2002-09-06T15:00:00Z,28.9818,-94.9186,-2.0,28.54,11111222 
TABS,ioos:station:wmo:42043:1,2002-09-06T15:30:00Z,28.9818,-94.9186,-2.0,28.49,11111222 
TABS,ioos:station:wmo:42043:1,2002-09-06T16:00:00Z,28.9818,-94.9186,-2.0,28.52,11111222 
TABS,ioos:station:wmo:42043:1,2002-09-06T16:30:00Z,28.9818,-94.9186,-2.0,28.54,11111222 
TABS,ioos:station:wmo:42043:1,2002-09-06T17:00:00Z,28.9818,-94.9186,-2.0,28.45,11111222 
TABS,ioos:station:wmo:42043:1,2002-09-06T17:30:00Z,28.9818,-94.9186,-2.0,28.4,11111222 
TABS,ioos:station:wmo:42043:1,2002-09-06T18:00:00Z,28.9818,-94.9186,-2.0,28.4,11111222 
TABS,ioos:station:wmo:42043:1,2002-09-06T18:30:00Z,28.9818,-94.9186,-2.0,28.41,11111222 
TABS,ioos:station:wmo:42043:1,2002-09-06T19:00:00Z,28.9818,-94.9186,-2.0,28.38,11111222 
TABS,ioos:station:wmo:42043:1,2002-09-06T19:30:00Z,28.9818,-94.9186,-2.0,28.35,11111222 
TABS,ioos:station:wmo:42043:1,2002-09-06T20:00:00Z,28.9818,-94.9186,-2.0,28.34,11111222 
TABS,ioos:station:wmo:42043:1,2002-09-06T20:30:00Z,28.9818,-94.9186,-2.0,28.35,11111222 
TABS,ioos:station:wmo:42043:1,2002-09-06T21:00:00Z,28.9818,-94.9186,-2.0,28.32,11111222 
TABS,ioos:station:wmo:42043:1,2002-09-06T21:30:00Z,28.9818,-94.9186,-2.0,28.3,11111222 
TABS,ioos:station:wmo:42043:1,2002-09-06T22:00:00Z,28.9818,-94.9186,-2.0,28.26,11111222 
TABS,ioos:station:wmo:42043:1,2002-09-06T22:30:00Z,28.9818,-94.9186,-2.0,28.25,11111222 
TABS,ioos:station:wmo:42043:1,2002-09-06T23:00:00Z,28.9818,-94.9186,-2.0,28.21,11111222 
TABS,ioos:station:wmo:42043:1,2002-09-06T23:30:00Z,28.9818,-94.9186,-2.0,28.21,11111222 
TABS,ioos:station:wmo:42043:1,2002-09-07T00:00:00Z,28.9818,-94.9186,-2.0,28.18,11111222 
TABS,ioos:station:wmo:42043:1,2002-09-07T00:30:00Z,28.9818,-94.9186,-2.0,28.16,11111222 
TABS,ioos:station:wmo:42043:1,2002-09-07T01:00:00Z,28.9818,-94.9186,-2.0,28.16,11111222 
TABS,ioos:station:wmo:42043:1,2002-09-07T01:30:00Z,28.9818,-94.9186,-2.0,28.16,11111222 
TABS,ioos:station:wmo:42043:1,2002-09-07T02:00:00Z,28.9818,-94.9186,-2.0,28.14,11111222 
TABS,ioos:station:wmo:42043:1,2002-09-07T02:30:00Z,28.9818,-94.9186,-2.0,28.12,11111222 
TABS,ioos:station:wmo:42043:1,2002-09-07T03:00:00Z,28.9818,-94.9186,-2.0,28.09,11111222 
TABS,ioos:station:wmo:42043:1,2002-09-07T03:30:00Z,28.9818,-94.9186,-2.0,28.08,11111222 
TABS,ioos:station:wmo:42043:1,2002-09-07T07:30:00Z,28.9818,-94.9186,-2.0,28.05,11111222 
TABS,ioos:station:wmo:42043:1,2002-09-07T09:00:00Z,28.9818,-94.9186,-2.0,28.04,11111222 
TABS,ioos:station:wmo:42043:1,2002-09-07T22:30:00Z,28.9818,-94.9186,-2.0,28.32,11111222 
TABS,ioos:station:wmo:42043:1,2002-09-07T23:30:00Z,28.9818,-94.9186,-2.0,28.15,11111222 
TABS,ioos:station:wmo:42043:1,2002-09-08T00:00:00Z,28.9818,-94.9186,-2.0,28.32,11111222 
TABS,ioos:station:wmo:42043:1,2002-09-08T01:00:00Z,28.9818,-94.9186,-2.0,28.36,11111222 
TABS,ioos:station:wmo:42043:1,2002-09-08T02:00:00Z,28.9818,-94.9186,-2.0,28.38,11111222 
TABS,ioos:station:wmo:42043:1,2002-09-08T03:30:00Z,28.9818,-94.9186,-2.0,28.26,11111222 
TABS,ioos:station:wmo:42043:1,2002-09-08T04:30:00Z,28.9818,-94.9186,-2.0,28.3,11111222 
TABS,ioos:station:wmo:42043:1,2002-09-08T05:30:00Z,28.9818,-94.9186,-2.0,28.23,11111222 
TABS,ioos:station:wmo:42043:1,2002-09-08T07:00:00Z,28.9818,-94.9186,-2.0,28.21,11111222 
TABS,ioos:station:wmo:42043:1,2002-09-08T08:00:00Z,28.9818,-94.9186,-2.0,28.2,11111222 
TABS,ioos:station:wmo:42043:1,2002-09-08T09:00:00Z,28.9818,-94.9186,-2.0,28.2,11111222 
TABS,ioos:station:wmo:42043:1,2002-09-08T10:30:00Z,28.9818,-94.9186,-2.0,28.13,11111222 
TABS,ioos:station:wmo:42043:1,2002-09-08T11:30:00Z,28.9818,-94.9186,-2.0,28.13,11111222 
TABS,ioos:station:wmo:42043:1,2002-09-08T12:30:00Z,28.9818,-94.9186,-2.0,28.02,11111222 
TABS,ioos:station:wmo:42043:1,2002-09-08T14:00:00Z,28.9818,-94.9186,-2.0,27.98,11111222 
TABS,ioos:station:wmo:42043:1,2002-09-08T15:00:00Z,28.9818,-94.9186,-2.0,27.96,11111222 
TABS,ioos:station:wmo:42043:1,2002-09-08T22:00:00Z,28.9818,-94.9186,-2.0,28.13,11111222 
TABS,ioos:station:wmo:42043:1,2002-09-08T22:30:00Z,28.9818,-94.9186,-2.0,28.04,11111222 
TABS,ioos:station:wmo:42043:1,2002-09-08T23:00:00Z,28.9818,-94.9186,-2.0,28.04,11111222 
TABS,ioos:station:wmo:42043:1,2002-09-08T23:30:00Z,28.9818,-94.9186,-2.0,28.05,11111222 
TABS,ioos:station:wmo:42043:1,2002-09-09T00:00:00Z,28.9818,-94.9186,-2.0,28.01,11111222 
TABS,ioos:station:wmo:42043:1,2002-09-09T03:30:00Z,28.9818,-94.9186,-2.0,27.97,11111222 
TABS,ioos:station:wmo:42043:1,2002-09-09T04:00:00Z,28.9818,-94.9186,-2.0,27.97,11111222 
TABS,ioos:station:wmo:42043:1,2002-09-09T04:30:00Z,28.9818,-94.9186,-2.0,27.97,11111222 
TABS,ioos:station:wmo:42043:1,2002-09-09T05:00:00Z,28.9818,-94.9186,-2.0,28.0,11111222 
TABS,ioos:station:wmo:42043:1,2002-09-09T05:30:00Z,28.9818,-94.9186,-2.0,27.96,11111222 
TABS,ioos:station:wmo:42043:1,2002-09-09T06:00:00Z,28.9818,-94.9186,-2.0,27.93,11111222 
TABS,ioos:station:wmo:42043:1,2002-09-09T06:30:00Z,28.9818,-94.9186,-2.0,27.93,11111222 
TABS,ioos:station:wmo:42043:1,2002-09-09T07:00:00Z,28.9818,-94.9186,-2.0,27.92,11111222 
TABS,ioos:station:wmo:42043:1,2002-09-09T07:30:00Z,28.9818,-94.9186,-2.0,27.87,11111222 
TABS,ioos:station:wmo:42043:1,2002-09-09T08:00:00Z,28.9818,-94.9186,-2.0,27.88,11111222 
TABS,ioos:station:wmo:42043:1,2002-09-09T08:30:00Z,28.9818,-94.9186,-2.0,27.87,11111222 
TABS,ioos:station:wmo:42043:1,2002-09-09T09:00:00Z,28.9818,-94.9186,-2.0,27.84,11111222 
TABS,ioos:station:wmo:42043:1,2002-09-09T09:30:00Z,28.9818,-94.9186,-2.0,27.85,11111222 
TABS,ioos:station:wmo:42043:1,2002-09-09T10:00:00Z,28.9818,-94.9186,-2.0,27.87,11111222 
TABS,ioos:station:wmo:42043:1,2002-09-09T10:30:00Z,28.9818,-94.9186,-2.0,27.87,11111222 
TABS,ioos:station:wmo:42043:1,2002-09-09T11:00:00Z,28.9818,-94.9186,-2.0,27.81,11111222 
TABS,ioos:station:wmo:42043:1,2002-09-09T11:30:00Z,28.9818,-94.9186,-2.0,27.75,11111222 
TABS,ioos:station:wmo:42043:1,2002-09-09T12:00:00Z,28.9818,-94.9186,-2.0,27.74,11111222 
TABS,ioos:station:wmo:42043:1,2002-09-09T12:30:00Z,28.9818,-94.9186,-2.0,27.78,11111222 
TABS,ioos:station:wmo:42043:1,2002-09-09T13:00:00Z,28.9818,-94.9186,-2.0,27.81,11111222 
TABS,ioos:station:wmo:42043:1,2002-09-09T13:30:00Z,28.9818,-94.9186,-2.0,27.88,11111222 
TABS,ioos:station:wmo:42043:1,2002-09-09T14:00:00Z,28.9818,-94.9186,-2.0,27.91,11111222 
TABS,ioos:station:wmo:42043:1,2002-09-09T14:30:00Z,28.9818,-94.9186,-2.0,27.9,11111222 
TABS,ioos:station:wmo:42043:1,2002-09-09T15:00:00Z,28.9818,-94.9186,-2.0,27.82,11111222 
TABS,ioos:station:wmo:42043:1,2002-09-09T15:30:00Z,28.9818,-94.9186,-2.0,27.78,11111222 
TABS,ioos:station:wmo:42043:1,2002-09-09T16:00:00Z,28.9818,-94.9186,-2.0,27.78,11111222 
TABS,ioos:station:wmo:42043:1,2002-09-09T16:30:00Z,28.9818,-94.9186,-2.0,27.81,11111222 
TABS,ioos:station:wmo:42043:1,2002-09-09T17:00:00Z,28.9818,-94.9186,-2.0,27.85,11111222 
TABS,ioos:station:wmo:42043:1,2002-09-09T17:30:00Z,28.9818,-94.9186,-2.0,27.82,11111222 
TABS,ioos:station:wmo:42043:1,2002-09-09T18:00:00Z,28.9818,-94.9186,-2.0,27.77,11111222 
TABS,ioos:station:wmo:42043:1,2002-09-09T23:30:00Z,28.9818,-94.9186,-2.0,27.78,11111222 
TABS,ioos:station:wmo:42043:1,2002-09-10T00:00:00Z,28.9818,-94.9186,-2.0,27.75,11111222 
TABS,ioos:station:wmo:42043:1,2002-09-10T00:30:00Z,28.9818,-94.9186,-2.0,27.71,11111222 
TABS,ioos:station:wmo:42043:1,2002-09-10T01:00:00Z,28.9818,-94.9186,-2.0,27.72,11111222 